Regional Weather Roundup
Issued by NWS Austin/San Antonio, TX

Current Version | Previous Version | Text Only | Print | Product List | Glossary On
Versions: 1 2 3 4 5 6 7 8 9 10 11 12 13 14 15 16 17 18 19 20 21 22 23 24 25 26 27 28 29 30 31 32 33 34 35 36 37 38 39 40 41 42 43 44 45 46 47 48 49 50
000
ASUS44 KEWX 290901
RWREWX
SOUTH TEXAS REGIONAL WEATHER ROUNDUP
NATIONAL WEATHER SERVICE AUSTIN/SAN ANTONIO TX
400 AM CDT THU SEP 29 2022

NOTE: "FAIR" INDICATED FEW OR NO CLOUDS BELOW 12,000 FEET WITH NO
SIGNIFICANT WEATHER AND/OR OBSTRUCTIONS TO VISIBILITY.

* - THESE STATIONS ARE NOT NWS OR FAA STATIONS...AND ARE NOT SUBJECT
    TO NWS AND FAA QUALITY CONTROL.

TXZ171-172-183>190-291000-
TEXAS HILL COUNTRY AND EDWARDS PLATEAU

CITY           SKY/WX    TMP DP  RH WIND       PRES   REMARKS
JUNCTION       CLEAR     56  46  69 W3        30.26F
*LLANO         CLOUDY    57  46  67 CALM      30.21S
BURNET         CLEAR     62  45  53 CALM      30.24R
*HORSESHOE BAY CLEAR     59  45  58 CALM      30.22S
*LAGO VISTA      N/A     69  41  36 SW6       30.22S
*KERRVILLE     CLEAR     56  44  63 CALM      30.24F
*FREDERICKSBRG CLEAR     55  45  68 CALM      30.24F
*ROCKSPRINGS   PTCLDY    64  48  55 S6        30.31F
*BOERNE        CLEAR     59  46  63 CALM      30.24S
HONDO          CLEAR     59  44  57 N7        30.22F
*UVALDE        CLEAR     58  49  72 CALM      30.24F
DEL RIO        CLEAR     66  50  56 NE6       30.21F
*LAUGHLIN AFB  CLEAR     60  52  75 CALM      30.19F
*SPOFFORD      CLEAR     59  48  67 CALM      30.21F
CARRIZO SPRGS  CLEAR     61  52  72 CALM      30.19F
*FAITH RANCH   CLEAR     63  54  72 SW6       30.23S
$$

TXZ173-191>194-202-209-217>225-228-291000-
CENTRAL AND SOUTH CENTRAL TEXAS

CITY           SKY/WX    TMP DP  RH WIND       PRES   REMARKS
GEORGETOWN     CLEAR     63  47  55 W3        30.22S
*TAYLOR        CLEAR     66  45  46 CALM      30.20S
AUSTIN/BERGSTM CLEAR     58  50  75 SW5       30.19F
AUSTIN/MABRY   CLEAR     62  51  67 CALM      30.21S
*PFLUGERVILLE  CLEAR     64  45  48 CALM      30.19S
SAN MARCOS     CLEAR    N/A N/A N/A NW6         N/A
NEW BRAUNFELS  CLEAR     74  47  38 NW6       30.19F
*RANDOLPH AFB  CLEAR     63  49  61 NW3       30.18F
*SEGUIN        CLEAR     60  49  66 CALM      30.18F
SAN ANTONIO    CLEAR     65  49  56 NW3       30.21F
STINSON FIELD  CLEAR     63  52  67 CALM      30.19F
*KELLY FIELD   CLEAR     61  49  65 NW3       30.18F
*PLEASANTON    CLEAR     61  54  75 CALM      30.21S
*KENEDY        CLEAR     59  53  82 CALM      30.20F
*LA GRANGE     NOT AVBL
*GIDDINGS      CLEAR     59  50  73 CALM      30.21R
*GONZALES      CLEAR     65  51  61 CALM      30.20S
$$

TXZ163>164-176>182-195>201-210>213-226-227-235-291000-
SOUTHEAST TEXAS

CITY           SKY/WX    TMP DP  RH WIND       PRES   REMARKS
COLLEGE STN    CLEAR     64  50  60 CALM      30.21R
*BRYAN         CLEAR     67  49  51 CALM      30.23R
*CALDWELL      CLEAR     60  53  78 CALM      30.21F
*CROCKETT      CLEAR     63  52  67 CALM      30.22S
*BRENHAM       CLEAR     62  52  69 CALM      30.22
HUNTSVILLE     CLEAR     61  53  75 CALM      30.20S
CONROE         CLEAR     63  51  65 CALM      30.21S
HOUSTON BUSH   CLEAR     64  51  62 N3        30.19S
HOUSTON HOBBY  CLEAR     72  49  44 NE6       30.17F
*HOUSTON SW AP NOT AVBL
PEARLAND       CLEAR     64  56  75 CALM      30.19F
HOUSTON HOOKS  CLEAR     60  53  77 MISG      30.20S
ELLINGTON FLD  CLEAR     68  52  56 NE8       30.17F
SUGAR LAND     CLEAR     60  55  83 CALM      30.18F
*HOUSTON EXEC  CLEAR     63  54  72 CALM      30.21S
*CLEVELAND MUN NOT AVBL
*WHARTON       CLEAR     61  57  88 NE3       30.19F
*COLUMBUS      FAIR      61  54  78 CALM      30.20F
*EAGLE LAKE    CLEAR     63  54  74 MISG      30.20S
$$

TXZ214>216-236>238-291000-
THE UPPER TEXAS COAST

CITY           SKY/WX    TMP DP  RH WIND       PRES   REMARKS
*ORANGE        CLEAR     67  50  54 NE6       30.21F
PORT ARTHUR    CLEAR     68  48  48 NE13      30.18F
GALVESTON      CLEAR     75  59  57 NE12      30.17F
ANGLETON       CLEAR     59  55  87 N5        30.18F
*BAY CITY      CLEAR     58  56  92 NE3       30.19S
PALACIOS       CLEAR     61  57  87 N6        30.17F
$$

TXZ229>234-239>247-291000-
TEXAS COASTAL BEND AND RIO GRANDE PLAINS

CITY           SKY/WX    TMP DP  RH WIND       PRES   REMARKS
VICTORIA       CLEAR     61  58  90 CALM      30.18S
*BEEVILLE      CLEAR     63  58  83 W5        30.17F
ROCKPORT       CLEAR     71  66  84 NW6       30.17S
*PORT ARANSAS  CLEAR    N/A N/A N/A N5        30.18F
*PORT LAVACA   CLEAR     65  58  77 N3        30.18S
*INGLESIDE     NOT AVBL
CORPUS CHRISTI CLEAR     66  60  81 NW5       30.16F
CORPUS NAS     CLEAR     72  65  78 NW5       30.16F
*ROBSTOWN      CLEAR     65  59  81 MISG      30.18F
ALICE          CLEAR     62  60  93 W3        30.17F
KINGSVILLE NAS CLEAR     63  60  90 NW5       30.17F
COTULLA        CLEAR     63  53  70 CALM      30.19F
LAREDO         CLEAR     69  60  73 SE5       30.19F
$$

TXZ248>255-291000-
DEEP SOUTH TEXAS

CITY           SKY/WX    TMP DP  RH WIND       PRES   REMARKS
BROWNSVILLE    PTCLDY    69  64  84 NW5       30.14F
PORT ISABEL    CLEAR     76  61  59 NE7       30.14F
HARLINGEN      CLEAR     65  63  93 NW6       30.15F
*HEBBRONVILLE  CLEAR     62  57  83 CALM      30.21F
MCALLEN        CLEAR     67  61  81 NW3       30.17F
*WESLACO       CLEAR     66  62  86 NW5       30.17
FALFURRIAS     CLEAR     62  59  89 N3        30.17F
EDINBURG       CLEAR     63  61  93 NW3       30.18S
*ZAPATA        CLEAR     64  63  94 W3        30.20F
$$

TXZ213>215-236>238-242>244-246-247-251-254-255-291000-
CMAN STATIONS

STATION/POSITION TIME  TEMP    WIND        PRES    WAVE
                       AIR SEA DIR/SP/G            HT/PER
                 (UTC) (F)     (DEG/KT/KT) (MB)    (FT/S)
SEA RIM ST PARK  0800   69      60/ 10/ 12 1022.2
NORTH JETTY/GLS  0818   76 79   70/ 19/ 20 1020.4
EAGLE POINT      0830   75 78   60/ 16/ 19 1021.2
MORGANS POINT    0824   71 81   50/ 10/ 12 1021.4
MISSION/ARANSAS  0800   75     330/  6     1022.0
PORT O`CONNOR    0830   72 87  270/  5/  6 1021.3
PORT ARANSAS     0800   74     310/  5/  6   N/A
BAFFIN BAY       0830   72 82  310/  7/  8 1021.8
PORT ISABEL      0830   80 82   40/ 12/ 14 1020.3
$$



USA.gov is the U.S. government's official web portal to all federal, state and local government web resources and services.